[[[{"header":{"parameterUnit":"kt","parameterCategory":2,"dx":1,"dy":1,"la1":30.253999710083008,"la2":30.299108505249023,"lo1":-89.0895004272461,"lo2":-89.04439544677734,"nx":28,"ny":28,"refTime":"2022-09-26T21:00:00:Z","depth":0,"parameterNumber":1,"parameterNumberName":"U-component_of_WINDS"},"data":[-0.4145,-0.3994,-0.394,-0.3741,-0.3659,-0.3512,-0.3442,-0.3344,-0.3253,-0.3069,-0.2953,-0.2882,-0.2767,-0.2613,-0.2482,-0.2453,-0.2399,-0.2382,-0.235,-0.2478,-0.2491,-0.2505,-0.2537,-0.2373,-0.2372,-0.2224,-0.2222,-0.2221,-0.4232,-0.415,-0.4032,-0.3879,-0.3775,-0.3757,-0.3634,-0.3547,-0.3416,-0.3304,-0.3189,-0.3022,-0.2883,-0.2773,-0.2628,-0.2551,-0.2534,-0.2516,-0.2518,-0.2499,-0.2635,-0.267,-0.2532,-0.2532,-0.2532,-0.2532,-0.2532,-0.2532,-0.4376,-0.4289,-0.4167,-0.4037,-0.3947,-0.3845,-0.3751,-0.3668,-0.3549,-0.3397,-0.3357,-0.3207,-0.3083,-0.2885,-0.2806,-0.2684,-0.2695,-0.2657,-0.2647,-0.2638,-0.2632,-0.2844,-0.2658,-0.2659,-0.2659,-0.2659,-0.2659,0,-0.4464,-0.4425,-0.431,-0.4177,-0.408,-0.3972,-0.3865,-0.3805,-0.3707,-0.3613,-0.3472,-0.3382,-0.3202,-0.3061,-0.2916,-0.2841,-0.2811,-0.2805,-0.2778,-0.2792,-0.2821,-0.2798,-0.3016,-0.2811,-0.2812,-0.2812,-0.2813,-0.2813,-0.46,-0.4508,-0.4358,-0.4283,-0.4212,-0.4094,-0.4012,-0.3933,-0.3849,-0.3704,-0.3629,-0.349,-0.3374,-0.3156,-0.3059,-0.2924,-0.2908,-0.2834,-0.2888,-0.2904,-0.2899,-0.2904,-0.2891,-0.2825,-0.2823,-0.2822,-0.2821,0,-0.468,-0.4598,-0.4439,-0.43,-0.4262,-0.4168,-0.4047,-0.3957,-0.3888,-0.3753,-0.3717,-0.3608,-0.3471,-0.3387,-0.3215,-0.3174,-0.3006,-0.2997,-0.3045,-0.3037,-0.2958,-0.2965,-0.2729,-0.2691,-0.2866,-0.2864,-0.2863,0,-0.4762,-0.4645,-0.4528,-0.4441,-0.4305,-0.4231,-0.4099,-0.4027,-0.3924,-0.3818,-0.3775,-0.3675,-0.3584,-0.347,-0.3411,-0.326,-0.323,-0.3188,-0.3172,-0.3189,-0.3193,-0.314,-0.3146,-0.315,-0.3151,-0.3152,-0.3153,0,-0.4894,-0.4698,-0.4556,-0.4497,-0.434,-0.4274,-0.4205,-0.4091,-0.4012,-0.3897,-0.3843,-0.3715,-0.3643,-0.3541,-0.3466,-0.3505,-0.3282,-0.332,-0.3239,-0.324,-0.3192,-0.3195,-0.301,-0.3155,-0.3155,-0.3156,-0.3156,0,-0.4948,-0.4837,-0.4646,-0.4512,-0.4464,-0.4371,-0.424,-0.4142,-0.4024,-0.3982,-0.3891,-0.3852,-0.372,-0.3761,-0.3574,-0.3645,-0.3575,-0.3524,-0.3517,-0.3497,-0.3545,-0.3446,-0.3283,-0.3259,-0.348,-0.3483,-0.3485,0,-0.5117,-0.4905,-0.4842,-0.4662,-0.4553,-0.4511,-0.4406,-0.4306,-0.4241,-0.4135,-0.4063,-0.3944,-0.3959,-0.391,-0.3829,-0.3748,-0.3657,-0.3759,-0.3598,-0.3594,-0.3626,-0.3475,-0.347,-0.3328,-0.3519,-0.3516,-0.3513,0,-0.5239,-0.5055,-0.5028,-0.4958,-0.4818,-0.4728,-0.4609,-0.4477,-0.4409,-0.4305,-0.4199,-0.4034,-0.4035,-0.3957,-0.3913,-0.3833,-0.3716,-0.3847,-0.3842,-0.3821,-0.3532,-0.3526,-0.3503,-0.3703,-0.3699,-0.3696,-0.354,0,-0.5328,-0.5216,-0.5141,-0.4995,-0.4913,-0.48,-0.4716,-0.464,-0.4606,-0.4542,-0.4389,-0.4288,-0.4153,-0.4109,-0.4077,-0.3923,-0.3935,-0.394,-0.3973,-0.3877,-0.3823,-0.3802,-0.406,-0.406,-0.4061,-0.4061,0,0,-0.5508,-0.5346,-0.5285,-0.517,-0.5096,-0.5059,-0.4943,-0.4868,-0.4717,-0.4665,-0.4684,-0.4436,-0.4355,-0.4177,-0.4141,-0.4089,-0.4051,-0.4091,-0.3925,-0.391,-0.3896,-0.384,-0.3819,-0.4062,-0.4062,-0.4062,-0.4062,0,-0.5524,-0.5448,-0.5338,-0.5258,-0.5137,-0.5077,-0.505,-0.4924,-0.4878,-0.4732,-0.4701,-0.4599,-0.4408,-0.4322,-0.4254,-0.411,-0.4091,-0.4076,-0.4024,-0.3932,-0.3917,-0.3903,-0.3845,-0.3826,-0.4063,-0.4063,-0.4063,0,-0.5625,-0.5534,-0.5475,-0.5314,-0.5235,-0.5126,-0.514,-0.5027,-0.4944,-0.4909,-0.4764,-0.4697,-0.4579,-0.4426,-0.4354,-0.4368,-0.413,-0.4194,-0.419,-0.4179,-0.4085,-0.4067,-0.4051,-0.4264,-0.4265,-0.4266,0,0,-0.565,-0.5548,-0.5428,-0.5311,-0.5264,-0.5174,-0.5109,-0.507,-0.4967,-0.4926,-0.4841,-0.474,-0.4626,-0.4553,-0.4444,-0.4289,-0.4255,-0.4223,-0.4213,-0.4206,-0.4191,-0.4096,-0.4078,-0.427,-0.427,-0.427,0,0,-0.5661,-0.5519,-0.5505,-0.5361,-0.5264,-0.5137,-0.5067,-0.5047,-0.4941,-0.4945,-0.4873,-0.4843,-0.4699,-0.4636,-0.4697,-0.4453,-0.4487,-0.4471,-0.4499,-0.4486,-0.4477,-0.4494,-0.4697,0,0,0,0,0,-0.5637,-0.5536,-0.5525,-0.5489,-0.5287,-0.5144,-0.5117,-0.5057,-0.5081,-0.5026,-0.4951,-0.4938,-0.4653,-0.4706,-0.4669,-0.4601,-0.432,-0.4311,-0.4303,-0.4302,-0.4289,-0.4279,0,0,0,0,0,0,-0.5622,-0.5579,-0.5528,-0.5399,-0.5353,-0.5147,-0.5174,-0.5155,-0.5085,-0.5085,-0.4953,-0.4933,-0.4878,-0.472,-0.4688,-0.4624,-0.4708,-0.4317,-0.4309,-0.4302,-0.4298,-0.4287,-0.4278,0,0,0,0,0,-0.561,-0.5575,-0.5268,-0.5399,-0.5359,-0.5255,-0.5178,-0.5162,-0.5107,-0.4992,-0.4973,-0.5068,-0.4878,-0.4847,-0.4701,-0.464,-0.4729,-0.4718,-0.4312,-0.4306,-0.43,-0.4293,0,0,0,0,0,0,-0.5601,-0.5558,-0.5258,-0.5244,-0.5435,-0.5265,-0.5237,-0.5168,-0.5017,-0.4997,-0.5105,-0.5106,-0.4877,-0.4853,-0.4829,-0.4649,-0.4747,-0.4735,-0.4728,-0.4307,-0.4302,-0.4298,0,0,0,0,0,0,-0.5576,-0.5546,-0.5251,-0.5298,-0.5289,-0.5275,-0.5249,-0.5118,-0.5016,-0.5138,-0.5134,-0.5107,-0.4912,-0.4856,-0.4838,-0.4635,-0.476,-0.4749,-0.4741,-0.4736,-0.4303,-0.43,0,0,0,0,0,0,-0.5562,-0.5536,-0.5302,-0.5294,-0.5286,-0.5117,-0.5157,-0.4953,-0.5059,-0.5145,-0.5067,-0.5071,-0.4915,-0.4895,-0.4844,-0.4649,-0.4639,-0.476,-0.4752,-0.4747,-0.4743,0,0,0,0,0,0,0,-0.5551,-0.5743,-0.5345,-0.5291,-0.5284,-0.5108,-0.5104,-0.51,-0.506,-0.5063,-0.5066,-0.5069,-0.4825,-0.4813,-0.48,-0.4661,0,0,-0.4761,-0.4756,0,0,0,0,0,0,0,0,-0.5752,-0.5745,-0.5345,-0.5342,-0.5339,-0.5108,-0.5104,-0.5101,-0.5061,-0.5063,-0.5066,-0.5068,-0.4822,-0.4812,-0.4802,0,0,0,0,0,0,0,0,0,0,0,0,0,0,0,-0.5344,-0.5342,0,-0.5107,-0.5105,-0.5102,-0.5061,-0.5063,-0.5065,-0.5067,-0.4819,-0.4811,-0.4802,0,0,0,0,0,0,0,0,0,0,0,0,0,0,0,0,0,0,0,0,0,0,0,0,0,0,0,0,0,0,0,0,0,0,0,0,0,0,0,0,0,0,0,0,0,0,0,0,0,0,0,0,0,0,0,0,0,0,0,0,0,0,0,0,0,0,0,0,0]}],[{"header":{"parameterUnit":"kt","parameterCategory":2,"dx":1,"dy":1,"la1":30.253999710083008,"la2":30.299108505249023,"lo1":-89.0895004272461,"lo2":-89.04439544677734,"nx":28,"ny":28,"refTime":"2022-09-26T21:00:00:Z","depth":0,"parameterNumber":2,"parameterNumberName":"V-component_of_WINDS"},"data":[-6.8487,-6.8311,-6.8305,-6.8097,-6.8056,-6.7909,-6.7853,-6.7778,-6.7715,-6.7533,-6.7425,-6.7392,-6.7318,-6.7179,-6.7054,-6.704,-6.6983,-6.6929,-6.6919,-6.7183,-6.7218,-6.7251,-6.7293,-6.692,-6.692,-6.6643,-6.6641,-6.6639,-6.8684,-6.8643,-6.8534,-6.842,-6.8324,-6.8375,-6.8285,-6.8197,-6.8062,-6.7983,-6.7876,-6.7711,-6.7576,-6.7517,-6.7381,-6.7289,-6.7297,-6.7252,-6.7252,-6.7237,-6.7522,-6.7568,-6.7247,-6.7247,-6.7247,-6.7248,-6.7248,-6.7248,-6.9038,-6.8934,-6.8863,-6.8742,-6.8683,-6.8605,-6.8499,-6.8466,-6.8351,-6.8217,-6.8225,-6.8067,-6.7978,-6.7807,-6.7744,-6.7615,-6.766,-6.7602,-6.7585,-6.7568,-6.755,-6.7939,-6.7592,-6.7593,-6.7594,-6.7594,-6.7595,0,-6.9292,-6.9295,-6.9188,-6.9079,-6.899,-6.8902,-6.8818,-6.8753,-6.8743,-6.8647,-6.8506,-6.8421,-6.825,-6.8109,-6.7978,-6.7922,-6.7947,-6.7951,-6.7909,-6.7898,-6.7907,-6.7891,-6.8348,-6.7958,-6.7961,-6.7963,-6.7964,-6.7966,-6.964,-6.9521,-6.9442,-6.9367,-6.9321,-6.9199,-6.9123,-6.9125,-6.9042,-6.8933,-6.8835,-6.8698,-6.8587,-6.8353,-6.83,-6.8167,-6.8175,-6.8028,-6.8154,-6.8153,-6.8161,-6.8164,-6.8148,-6.7998,-6.7994,-6.7991,-6.7988,0,-6.9835,-6.9824,-6.9634,-6.9565,-6.9543,-6.9414,-6.935,-6.9241,-6.9218,-6.9061,-6.9025,-6.8981,-6.8837,-6.8809,-6.8636,-6.8624,-6.8394,-6.8412,-6.8426,-6.8424,-6.8281,-6.8291,-6.784,-6.7778,-6.8175,-6.8172,-6.8169,0,-7.0121,-6.9963,-6.9953,-6.9842,-6.9665,-6.9672,-6.9493,-6.9454,-6.9382,-6.9259,-6.9293,-6.9175,-6.9159,-6.9034,-6.9016,-6.8825,-6.8794,-6.8769,-6.8763,-6.8759,-6.8761,-6.8701,-6.8714,-6.8768,-6.8771,-6.8773,-6.8774,0,-7.0419,-7.023,-7.0054,-7.0007,-6.9912,-6.9827,-6.9782,-6.9701,-6.9623,-6.9518,-6.9466,-6.9342,-6.927,-6.9169,-6.9146,-6.9232,-6.8914,-6.9027,-6.8886,-6.8886,-6.8807,-6.881,-6.8431,-6.8777,-6.8778,-6.8779,-6.878,0,-7.0643,-7.0549,-7.0298,-7.0219,-7.0167,-7.0049,-6.9931,-6.9825,-6.9734,-6.9718,-6.9634,-6.9648,-6.9486,-6.96,-6.9371,-6.949,-6.9415,-6.9379,-6.9368,-6.934,-6.9465,-6.9242,-6.8894,-6.885,-6.933,-6.9335,-6.9339,0,-7.0983,-7.0728,-7.0732,-7.049,-7.0367,-7.0415,-7.0283,-7.0204,-7.0172,-7.0056,-7.0018,-6.9883,-6.9963,-6.9915,-6.9808,-6.9756,-6.9603,-6.9778,-6.9591,-6.9585,-6.9607,-6.9289,-6.9239,-6.8977,-6.9398,-6.9391,-6.9387,0,-7.1243,-7.1136,-7.1092,-7.1037,-7.094,-7.0835,-7.0686,-7.0558,-7.0481,-7.0389,-7.0255,-7.007,-7.0119,-7.004,-7.0036,-6.9925,-6.9707,-6.999,-6.9987,-6.9932,-6.9427,-6.9381,-6.9337,-6.9728,-6.972,-6.9715,-6.9434,0,-7.1569,-7.1441,-7.1328,-7.1207,-7.1125,-7.0974,-7.0951,-7.0866,-7.0875,-7.0842,-7.0649,-7.057,-7.0429,-7.0376,-7.0379,-7.0138,-7.017,-7.0224,-7.0321,-7.0117,-7.0022,-6.9985,-7.0466,-7.0468,-7.0471,-7.0473,0,0,-7.1891,-7.1707,-7.1714,-7.1572,-7.1502,-7.1551,-7.139,-7.1325,-7.1191,-7.1137,-7.1197,-7.0918,-7.0849,-7.0613,-7.0548,-7.0494,-7.0443,-7.0515,-7.0217,-7.0189,-7.0163,-7.0062,-7.0024,-7.0477,-7.0478,-7.0478,-7.0479,0,-7.2004,-7.1953,-7.1799,-7.1736,-7.1642,-7.1618,-7.1582,-7.1492,-7.1463,-7.1278,-7.1309,-7.1189,-7.0966,-7.0887,-7.0817,-7.0548,-7.057,-7.0508,-7.0371,-7.0242,-7.0211,-7.0183,-7.0078,-7.0042,-7.0485,-7.0484,-7.0484,0,-7.2249,-7.2191,-7.2116,-7.1965,-7.1902,-7.1773,-7.1876,-7.1736,-7.1637,-7.1684,-7.1496,-7.1447,-7.1338,-7.1124,-7.1025,-7.1072,-7.0687,-7.0805,-7.079,-7.0774,-7.0647,-7.0609,-7.0576,-7.1013,-7.1015,-7.1017,0,0,-7.2347,-7.2231,-7.2163,-7.1987,-7.1946,-7.1907,-7.1836,-7.1836,-7.1746,-7.1708,-7.1644,-7.1548,-7.1418,-7.1331,-7.1208,-7.0977,-7.0947,-7.0872,-7.0847,-7.0827,-7.08,-7.0668,-7.0631,-7.1025,-7.1025,-7.1025,0,0,-7.2391,-7.2309,-7.2336,-7.2132,-7.205,-7.1963,-7.1853,-7.188,-7.1768,-7.1781,-7.1765,-7.1738,-7.1537,-7.1484,-7.159,-7.1239,-7.1339,-7.1313,-7.128,-7.1247,-7.1223,-7.1234,-7.1672,0,0,0,0,0,-7.2494,-7.2321,-7.2347,-7.231,-7.2114,-7.1952,-7.1925,-7.1914,-7.1987,-7.19,-7.185,-7.1883,-7.1538,-7.1631,-7.1589,-7.1467,-7.1122,-7.1105,-7.1088,-7.0991,-7.0958,-7.093,0,0,0,0,0,0,-7.2479,-7.2433,-7.2351,-7.226,-7.2216,-7.1958,-7.2077,-7.2069,-7.1996,-7.2006,-7.1892,-7.1879,-7.186,-7.1652,-7.1613,-7.1498,-7.1685,-7.1115,-7.1101,-7.1087,-7.098,-7.0953,-7.093,0,0,0,0,0,-7.2467,-7.243,-7.2122,-7.2262,-7.2223,-7.2168,-7.2083,-7.2077,-7.2019,-7.1942,-7.1931,-7.2018,-7.1857,-7.1824,-7.1629,-7.1516,-7.1712,-7.1697,-7.1106,-7.1094,-7.1084,-7.0967,0,0,0,0,0,0,-7.2458,-7.242,-7.2113,-7.2101,-7.2327,-7.2182,-7.216,-7.2085,-7.196,-7.1947,-7.2067,-7.2076,-7.1853,-7.1828,-7.1802,-7.1523,-7.1733,-7.1719,-7.171,-7.1097,-7.1088,-7.108,0,0,0,0,0,0,-7.244,-7.2409,-7.2107,-7.219,-7.2187,-7.2195,-7.2175,-7.2006,-7.1957,-7.2092,-7.2096,-7.2073,-7.1888,-7.183,-7.181,-7.1546,-7.1749,-7.1736,-7.1726,-7.172,-7.109,-7.1082,0,0,0,0,0,0,-7.2427,-7.24,-7.2193,-7.2191,-7.2188,-7.2047,-7.2044,-7.1841,-7.2039,-7.2096,-7.2056,-7.2063,-7.1889,-7.1869,-7.1815,-7.156,-7.155,-7.1749,-7.174,-7.1733,-7.1729,0,0,0,0,0,0,0,-7.2416,-7.2597,-7.2189,-7.2191,-7.219,-7.1986,-7.1982,-7.1979,-7.2041,-7.2048,-7.2054,-7.206,-7.1828,-7.1813,-7.1798,-7.1571,0,0,-7.175,-7.1744,0,0,0,0,0,0,0,0,-7.2607,-7.2599,-7.2188,-7.2186,-7.2183,-7.1985,-7.1982,-7.1979,-7.2042,-7.2047,-7.2053,-7.2058,-7.1824,-7.1812,-7.1799,0,0,0,0,0,0,0,0,0,0,0,0,0,0,0,-7.2188,-7.2186,0,-7.1985,-7.1982,-7.198,-7.2043,-7.2047,-7.2052,-7.2056,-7.1821,-7.1811,-7.18,0,0,0,0,0,0,0,0,0,0,0,0,0,0,0,0,0,0,0,0,0,0,0,0,0,0,0,0,0,0,0,0,0,0,0,0,0,0,0,0,0,0,0,0,0,0,0,0,0,0,0,0,0,0,0,0,0,0,0,0,0,0,0,0,0,0,0,0,0]}]]]